Location: Peebles
(55.6412°N, 3.1714°W)
Time: 18:34:51
(UTC+01:00)

Cosmos 1934 Rocket - Pass Details

Date: 28 January 2022
Orbit: 938 x 999 km, 83.0° (Epoch: 25 May)

Event Time Altitude Azimuth Distance (km) Brightness Sun altitude
Rises 19:59:15 0° 342° (NNW) 3,647 7.3 -27.9°
Reaches altitude 10° 20:02:30 10° 325° (NW) 2,687 6.8 -28.4°
Maximum altitude 20:06:31 19° 284° (WNW) 2,109 6.5 -29.0°
Drops below altitude 10° 20:10:32 10° 242° (WSW) 2,658 6.9 -29.5°
Sets 20:13:44 0° 225° (SW) 3,594 7.4 -30.0°
